Location: Newark
(58.9986°N, 38.5006°E)
Time: 05:28:55
(UTC+00:00)

N. Korean satellite - Pass Details

Date: 13 December 2019
Orbit: 454 x 507 km, 97.2° (Epoch: 23 January)

Event Time Altitude Azimuth Distance (km) Brightness Sun altitude
Rises 14:22:58 0° 173° (S) 2,601 10.5 -12.7°
Reaches altitude 10° 14:25:04 10° 177° (S) 1,716 9.6 -13.0°
Maximum altitude 14:28:44 60° 258° (WSW) 578 7.2 -13.4°
Drops below altitude 10° 14:32:23 10° 339° (NNW) 1,707 9.3 -13.8°
Sets 14:34:29 0° 343° (NNW) 2,585 10.2 -14.1°
